{"data":{"norad_id":60475,"epoch":"2026-05-25T04:39:28.608768Z","epoch_age_seconds":51487,"freshness":"FRESH","line1":"1 60475U 24149H   26145.19408112  .00003826  00000+0  16401-3 0  9999","line2":"2 60475  97.3735 221.6367 0002894  20.5853 339.5500 15.23344354 98300","mean_motion":15.23344354,"eccentricity":0.0002894,"inclination_deg":97.3735,"raan_deg":221.6367,"arg_perigee_deg":20.5853,"mean_anomaly_deg":339.55,"bstar":0.00016401,"rev_number":9830,"period_min":94.528856605458,"perigee_km":493.77221621507,"apogee_km":497.75082867986,"semimajor_km":6873.8985224475,"source":"CELESTRAK","updated_at":"2026-05-25T13:38:02.089172Z"}}